When you browse on this site, cookies collect data to enhance your experience and personalize the content and advertising you see.
Visit our Privacy Policy to learn more. By continuing to use the site, you agree to this use of cookies and data.
  • In Hungary
  • List of Countries
  • For 7 days
  • Water Temperature
  • Satellite Maps
  • Weather Map
  • News
  • Weather Widgets
  • user-avatar
    Login

    Hourly Weather Jaszow

    Today, 16 January, Wednesday

    Time Temperature Precipitation Wind Pressure Humidity
    00:00 +1°C° 0.3 mm 8 mps 735 mmHg 82%
    01:00 +1°C° 0 mm 5 mps 735 mmHg 87%
    02:00 +1°C° 0.5 mm 6 mps 735 mmHg 87%
    03:00 +1°C° 0.5 mm 6 mps 736 mmHg 86%
    04:00 +2°C° 0.5 mm 7 mps 736 mmHg 86%
    05:00 +2°C° 0.3 mm 7 mps 736 mmHg 87%
    06:00 +2°C° 0.3 mm 7 mps 736 mmHg 87%
    07:00 +2°C° 0.3 mm 6 mps 737 mmHg 88%
    08:00 +2°C° 0 mm 6 mps 737 mmHg 87%
    09:00 +2°C° 0 mm 5 mps 737 mmHg 87%
    10:00 +2°C° 0 mm 5 mps 738 mmHg 87%
    11:00 +2°C° 0 mm 5 mps 738 mmHg 85%
    12:00 +3°C° 0 mm 5 mps 738 mmHg 84%
    13:00 +4°C° 0 mm 4 mps 738 mmHg 82%
    14:00 +4°C° 0 mm 4 mps 738 mmHg 83%
    15:00 +3°C° 0 mm 4 mps 738 mmHg 84%
    16:00 +1°C° 0 mm 4 mps 737 mmHg 85%
    17:00 +1°C° 0 mm 4 mps 737 mmHg 85%
    18:00 +1°C° 0 mm 4 mps 737 mmHg 85%
    19:00 0°C° 0 mm 4 mps 737 mmHg 85%
    20:00 0°C° 0 mm 4 mps 736 mmHg 84%
    21:00 0°C° 0 mm 4 mps 736 mmHg 82%
    22:00 0°C° 0 mm 4 mps 736 mmHg 81%
    23:00 0°C° 0 mm 5 mps 735 mmHg 77%

    Tomorrow, 17 January, Thursday

    Time Temperature Precipitation Wind Pressure Humidity
    00:00 0°C° 0 mm 5 mps 735 mmHg 74%
    01:00 0°C° 0 mm 5 mps 735 mmHg 71%
    02:00 +1°C° 0 mm 6 mps 734 mmHg 68%
    03:00 0°C° 0 mm 7 mps 734 mmHg 66%
    04:00 0°C° 0 mm 8 mps 733 mmHg 63%
    05:00 0°C° 0 mm 8 mps 733 mmHg 65%
    06:00 0°C° 0 mm 8 mps 733 mmHg 66%
    07:00 0°C° 0 mm 8 mps 733 mmHg 68%
    08:00 +2°C° 0 mm 7 mps 733 mmHg 70%
    09:00 +2°C° 0 mm 7 mps 733 mmHg 73%
    10:00 +2°C° 0 mm 7 mps 734 mmHg 75%
    11:00 +3°C° 0 mm 6 mps 734 mmHg 75%
    12:00 +4°C° 0 mm 6 mps 734 mmHg 74%
    13:00 +4°C° 0 mm 6 mps 733 mmHg 74%
    14:00 +4°C° 0 mm 6 mps 733 mmHg 76%
    15:00 +3°C° 0 mm 5 mps 733 mmHg 78%
    16:00 +3°C° 0 mm 5 mps 733 mmHg 80%
    17:00 +3°C° 0 mm 6 mps 733 mmHg 79%
    18:00 +3°C° 0 mm 6 mps 733 mmHg 78%
    19:00 +3°C° 0 mm 7 mps 733 mmHg 77%
    20:00 +2°C° 0 mm 7 mps 733 mmHg 76%
    21:00 +2°C° 0 mm 7 mps 734 mmHg 76%
    22:00 0°C° 0 mm 7 mps 734 mmHg 75%
    23:00 0°C° 0 mm 7 mps 735 mmHg 73%

    Day after tomorrow, 18 January, Friday

    Time Temperature Precipitation Wind Pressure Humidity
    00:00 -1°C° 0 mm 6 mps 735 mmHg 71%
    01:00 -2°C° 0 mm 6 mps 735 mmHg 69%
    02:00 -2°C° 0 mm 6 mps 736 mmHg 69%
    03:00 -3°C° 0 mm 7 mps 736 mmHg 69%
    04:00 -3°C° 0 mm 7 mps 736 mmHg 69%
    05:00 -3°C° 0 mm 7 mps 737 mmHg 69%
    06:00 -3°C° 0 mm 6 mps 737 mmHg 69%
    07:00 -4°C° 0 mm 6 mps 738 mmHg 69%
    08:00 -3°C° 0.1 mm 6 mps 739 mmHg 68%
    09:00 -3°C° 0.1 mm 7 mps 740 mmHg 67%
    10:00 -2°C° 0.1 mm 7 mps 741 mmHg 66%
    11:00 -2°C° 0 mm 7 mps 741 mmHg 65%
    12:00 -1°C° 0 mm 7 mps 742 mmHg 64%
    13:00 -1°C° 0 mm 6 mps 742 mmHg 63%
    14:00 0°C° 0 mm 5 mps 743 mmHg 66%
    15:00 -1°C° 0 mm 4 mps 744 mmHg 69%
    16:00 0°C° 0 mm 3 mps 744 mmHg 72%
    17:00 -1°C° 0 mm 3 mps 744 mmHg 75%
    18:00 -2°C° 0 mm 2 mps 745 mmHg 77%
    19:00 -2°C° 0 mm 2 mps 745 mmHg 80%
    20:00 -1°C° 0 mm 1 mps 745 mmHg 80%
    21:00 -1°C° 0 mm 1 mps 745 mmHg 81%
    22:00 -1°C° 0 mm 1 mps 746 mmHg 81%
    23:00 -1°C° 0 mm 1 mps 746 mmHg 81%

    19 January, Saturday

    Time Temperature Precipitation Wind Pressure Humidity
    00:00 -1°C° 0 mm 1 mps 746 mmHg 81%
    01:00 -1°C° 0 mm 1 mps 746 mmHg 81%
    02:00 -1°C° 0 mm 1 mps 746 mmHg 80%
    03:00 -1°C° 0 mm 1 mps 745 mmHg 80%
    04:00 -1°C° 0 mm 1 mps 745 mmHg 79%
    05:00 -1°C° 0 mm 1 mps 745 mmHg 79%
    06:00 -1°C° 0 mm 1 mps 745 mmHg 78%
    07:00 -1°C° 0 mm 1 mps 745 mmHg 77%
    08:00 -1°C° 0 mm 1 mps 745 mmHg 73%
    09:00 0°C° 0 mm 1 mps 745 mmHg 68%
    10:00 +1°C° 0 mm 1 mps 745 mmHg 64%
    11:00 +1°C° 0 mm 1 mps 745 mmHg 60%
    12:00 +2°C° 0 mm 1 mps 745 mmHg 56%
    13:00 +3°C° 0 mm 1 mps 744 mmHg 52%
    14:00 +2°C° 0 mm 1 mps 744 mmHg 57%
    15:00 +1°C° 0 mm 1 mps 744 mmHg 61%
    16:00 0°C° 0 mm 1 mps 744 mmHg 65%
    17:00 0°C° 0 mm 1 mps 744 mmHg 68%
    18:00 0°C° 0 mm 1 mps 744 mmHg 71%
    19:00 -1°C° 0 mm 1 mps 744 mmHg 74%
    20:00 -1°C° 0 mm 1 mps 744 mmHg 74%
    21:00 -1°C° 0 mm 1 mps 744 mmHg 75%
    22:00 -1°C° 0 mm 1 mps 744 mmHg 76%
    23:00 -2°C° 0 mm 0 mps 744 mmHg 76%

    20 January, Sunday

    Time Temperature Precipitation Wind Pressure Humidity
    00:00 -2°C° 0 mm 0 mps 744 mmHg 77%
    01:00 -2°C° 0 mm 0 mps 744 mmHg 77%
    02:00 -3°C° 0 mm 0 mps 743 mmHg 78%
    03:00 -3°C° 0 mm 0 mps 743 mmHg 79%
    04:00 -3°C° 0 mm 0 mps 743 mmHg 79%
    05:00 -3°C° 0 mm 0 mps 743 mmHg 79%
    06:00 -3°C° 0 mm 0 mps 744 mmHg 80%
    07:00 -3°C° 0 mm 0 mps 744 mmHg 80%
    08:00 -3°C° 0 mm 0 mps 744 mmHg 76%
    09:00 -2°C° 0 mm 0 mps 745 mmHg 72%
    10:00 -1°C° 0 mm 0 mps 745 mmHg 68%
    11:00 0°C° 0 mm 1 mps 745 mmHg 64%
    12:00 +1°C° 0 mm 1 mps 745 mmHg 60%
    13:00 +1°C° 0 mm 1 mps 745 mmHg 56%
    14:00 +1°C° 0 mm 1 mps 745 mmHg 59%
    15:00 0°C° 0 mm 1 mps 745 mmHg 63%
    16:00 0°C° 0 mm 1 mps 745 mmHg 66%
    17:00 -1°C° 0 mm 1 mps 746 mmHg 68%
    18:00 -1°C° 0 mm 1 mps 746 mmHg 70%
    19:00 -4°C° 0 mm 2 mps 747 mmHg 72%
    20:00 -4°C° 0 mm 2 mps 747 mmHg 72%
    21:00 -4°C° 0 mm 2 mps 748 mmHg 72%
    22:00 -4°C° 0 mm 2 mps 748 mmHg 72%
    23:00 -4°C° 0 mm 2 mps 749 mmHg 74%

    21 January, Monday

    Time Temperature Precipitation Wind Pressure Humidity
    00:00 -4°C° 0 mm 2 mps 749 mmHg 77%
    01:00 -4°C° 0 mm 2 mps 749 mmHg 79%
    02:00 -4°C° 0 mm 2 mps 749 mmHg 82%
    03:00 -4°C° 0 mm 2 mps 750 mmHg 84%
    04:00 -4°C° 0 mm 2 mps 750 mmHg 87%
    05:00 -4°C° 0 mm 2 mps 750 mmHg 89%
    06:00 -5°C° 0 mm 2 mps 751 mmHg 91%
    07:00 -3°C° 0 mm 1 mps 751 mmHg 93%
    08:00 -3°C° 0 mm 1 mps 752 mmHg 88%
    09:00 -2°C° 0 mm 1 mps 752 mmHg 83%
    10:00 -2°C° 0 mm 1 mps 752 mmHg 78%
    11:00 -2°C° 0 mm 1 mps 752 mmHg 72%
    12:00 -1°C° 0 mm 1 mps 752 mmHg 67%
    13:00 -1°C° 0 mm 1 mps 752 mmHg 62%
    14:00 -1°C° 0 mm 1 mps 752 mmHg 63%
    15:00 -1°C° 0 mm 1 mps 752 mmHg 65%
    16:00 -2°C° 0 mm 1 mps 752 mmHg 67%
    17:00 -3°C° 0 mm 0 mps 752 mmHg 69%
    18:00 -4°C° 0 mm 0 mps 753 mmHg 70%
    19:00 -4°C° 0 mm 0 mps 753 mmHg 72%
    20:00 -4°C° 0 mm 0 mps 753 mmHg 73%
    21:00 -3°C° 0 mm 1 mps 753 mmHg 73%
    22:00 -3°C° 0 mm 1 mps 753 mmHg 74%
    23:00 -4°C° 0 mm 1 mps 752 mmHg 74%
    Show more